This is the latest recevied weather packets stored in our database for station/object OK2ZAW-23. If no packets are shown the sender has not sent any weather packets the latest 10 day(s).
| Time | Temp. | Humidity | Pressure | Rain* | Wind** | Luminosity | Snow |
|---|---|---|---|---|---|---|---|
| 1777443191 | 5.56° C | 45% | 1021.4 hPa | - | - | 335 W/m² | - |
| 1777442877 | 5° C | 48% | 1021.4 hPa | - | - | 335 W/m² | - |
| 1777442565 | 5° C | 48% | 1021.4 hPa | - | - | 335 W/m² | - |
| 1777441313 | 3.89° C | 51% | 1021.4 hPa | - | - | 335 W/m² | - |
| 1777441000 | 3.33° C | 54% | 1021.4 hPa | - | - | 335 W/m² | - |
| 1777439749 | 2.22° C | 55% | 1021.3 hPa | - | - | 335 W/m² | - |
| 1777438811 | 1.67° C | 56% | 1021.1 hPa | - | - | 335 W/m² | - |
| 1777438498 | 1.67° C | 56% | 1021.1 hPa | - | - | 335 W/m² | - |
| 1777438186 | 1.11° C | 57% | 1021.1 hPa | - | - | 335 W/m² | - |
| 1777437873 | 1.11° C | 57% | 1021.1 hPa | - | - | 335 W/m² | - |
| 1777436309 | 0.56° C | 59% | 1020.8 hPa | - | - | 335 W/m² | - |
| 1777435684 | 0.56° C | 61% | 1020.7 hPa | - | - | 335 W/m² | - |
| 1777435059 | 0.56° C | 57% | 1020.6 hPa | - | - | 335 W/m² | - |
| 1777434746 | 0.56° C | 57% | 1020.6 hPa | - | - | 335 W/m² | - |
| 1777434121 | 0.56° C | 56% | 1020.6 hPa | - | - | 335 W/m² | - |
| 1777433808 | 0.56° C | 56% | 1020.5 hPa | - | - | 335 W/m² | - |
| 1777432558 | 0.56° C | 60% | 1020.4 hPa | - | - | 335 W/m² | - |
| 1777432245 | 0.56° C | 61% | 1020.4 hPa | - | - | 335 W/m² | - |
| 1777431620 | 0.56° C | 60% | 1020.4 hPa | - | - | 335 W/m² | - |
| 1777431307 | 0.56° C | 60% | 1020.4 hPa | - | - | 335 W/m² | - |
| 1777430369 | 0.56° C | 55% | 1020.3 hPa | - | - | 335 W/m² | - |
| 1777430056 | 0.56° C | 56% | 1020.2 hPa | - | - | 335 W/m² | - |
| 1777429431 | 1.11° C | 56% | 1020.3 hPa | - | - | 335 W/m² | - |
| 1777429118 | 1.11° C | 57% | 1020.2 hPa | - | - | 335 W/m² | - |
| 1777428806 | 1.11° C | 53% | 1020.2 hPa | - | - | 335 W/m² | - |
* Rain since midnight (hover to see other rain measurements)
** Current wind speed in m/s (hover to see current wind gust speed)